| time (UTC) | temp F | wind direction | speed MPH | gust MPH | rain 1hr in | rain 24hr in | rain mn in | humidity % | barometer mb |
| 20260504044512 | 43 | 283 | 0.0 | 0.0 | 0.00 | 0.01 | 0.00 | 90 | 1017.2 |
| 20260504043033 | 44 | 283 | 0.0 | 0.0 | 0.00 | 0.01 | 0.00 | 89 | 1017.3 |
| 20260504041553 | 43 | 283 | 0.0 | 0.0 | 0.00 | 0.01 | 0.00 | 90 | 1017.4 |
| 20260504040015 | 44 | 283 | 0.0 | 0.0 | 0.00 | 0.01 | 0.01 | 90 | 1017.3 |
| 20260504034546 | 44 | 283 | 0.0 | 0.0 | 0.00 | 0.01 | 0.01 | 89 | 1017.4 |
| 20260504033001 | 45 | 283 | 0.0 | 0.0 | 0.00 | 0.01 | 0.01 | 84 | 1017.2 |
| 20260504031539 | 45 | 283 | 0.0 | 0.0 | 0.00 | 0.01 | 0.01 | 85 | 1017.2 |
| 20260504030118 | 45 | 283 | 0.0 | 0.0 | 0.00 | 0.01 | 0.01 | 84 | 1017.2 |
| 20260504024520 | 46 | 283 | 0.0 | 0.0 | 0.00 | 0.01 | 0.01 | 84 | 1017.1 |
| 20260504023040 | 46 | 283 | 0.0 | 0.0 | 0.00 | 0.01 | 0.01 | 84 | 1017.2 |
| 20260504021510 | 47 | 283 | 0.0 | 0.0 | 0.00 | 0.01 | 0.01 | 84 | 1017.2 |
| 20260504020030 | 47 | 283 | 0.0 | 0.0 | 0.00 | 0.01 | 0.01 | 82 | 1017.2 |
| 20260504014507 | 48 | 283 | 0.0 | 0.0 | 0.00 | 0.01 | 0.01 | 79 | 1016.9 |
| 20260504013031 | 49 | 283 | 0.0 | 0.0 | 0.00 | 0.01 | 0.01 | 75 | 1016.8 |
| 20260504011559 | 50 | 283 | 0.0 | 0.0 | 0.00 | 0.01 | 0.01 | 74 | 1016.6 |
| 20260504011501 | 50 | 283 | 0.0 | 0.0 | 0.00 | 0.01 | 0.01 | 73 | 1016.7 |
| 20260504010027 | 51 | 283 | 0.0 | 0.0 | 0.00 | 0.01 | 0.01 | 70 | 1016.3 |
| 20260504004551 | 53 | 283 | 0.0 | 0.0 | 0.00 | 0.01 | 0.01 | 70 | 1016.2 |
| 20260504003032 | 55 | 283 | 0.0 | 0.0 | 0.00 | 0.01 | 0.01 | 62 | 1016.2 |
| 20260504001605 | 57 | 283 | 0.0 | 0.0 | 0.00 | 0.01 | 0.01 | 56 | 1015.8 |
| 20260504000022 | 62 | 283 | 0.0 | 0.0 | 0.00 | 0.01 | 0.01 | 51 | 1015.7 |
| 20260503234538 | 66 | 283 | 0.0 | 0.0 | 0.00 | 0.01 | 0.01 | 43 | 1015.6 |
| 20260503233010 | 66 | 286 | 0.0 | 3.0 | 0.00 | 0.01 | 0.01 | 38 | 1015.7 |
| 20260503231535 | 66 | 294 | 1.0 | 3.0 | 0.00 | 0.01 | 0.01 | 38 | 1015.8 |
| 20260503224512 | 67 | 269 | 1.0 | 6.0 | 0.00 | 0.01 | 0.01 | 37 | 1015.6 |
| 20260503223043 | 67 | 286 | 2.0 | 7.0 | 0.00 | 0.01 | 0.01 | 35 | 1015.7 |
| 20260503221504 | 67 | 341 | 2.0 | 6.0 | 0.00 | 0.01 | 0.01 | 33 | 1015.7 |
| 20260503220034 | 68 | 283 | 2.0 | 7.0 | 0.00 | 0.02 | 0.01 | 34 | 1015.6 |
| 20260503214601 | 68 | 288 | 4.0 | 16.0 | 0.00 | 0.02 | 0.01 | 37 | 1015.6 |
| 20260503214504 | 68 | 286 | 4.0 | 16.0 | 0.00 | 0.02 | 0.01 | 34 | 1015.6 |
| 20260503213021 | 67 | 278 | 3.0 | 11.0 | 0.00 | 0.02 | 0.01 | 33 | 1015.7 |
| 20260503211554 | 67 | 329 | 3.0 | 9.0 | 0.00 | 0.02 | 0.01 | 35 | 1015.7 |
| 20260503210010 | 67 | 301 | 3.0 | 8.0 | 0.00 | 0.03 | 0.01 | 35 | 1015.7 |
| 20260503204542 | 67 | 321 | 5.0 | 11.0 | 0.00 | 0.03 | 0.01 | 36 | 1015.9 |
| 20260503203056 | 67 | 280 | 2.0 | 10.0 | 0.00 | 0.03 | 0.01 | 37 | 1016.0 |
| 20260503201524 | 67 | 247 | 3.0 | 12.0 | 0.00 | 0.03 | 0.01 | 36 | 1016.2 |
| 20260503200044 | 67 | 277 | 3.0 | 8.0 | 0.00 | 0.04 | 0.01 | 36 | 1016.5 |
| 20260503194509 | 66 | 309 | 3.0 | 8.0 | 0.00 | 0.04 | 0.01 | 40 | 1016.5 |
| 20260503193030 | 66 | 293 | 2.0 | 7.0 | 0.00 | 0.04 | 0.01 | 38 | 1016.7 |
| 20260503191555 | 65 | 358 | 3.0 | 9.0 | 0.00 | 0.04 | 0.01 | 39 | 1016.9 |
| 20260503190029 | 65 | 354 | 4.0 | 13.0 | 0.00 | 0.07 | 0.01 | 37 | 1017.0 |
| 20260503184536 | 65 | 356 | 4.0 | 11.0 | 0.00 | 0.07 | 0.01 | 36 | 1017.2 |
| 20260503183110 | 64 | 288 | 4.0 | 11.0 | 0.00 | 0.07 | 0.01 | 43 | 1017.3 |
| 20260503183013 | 65 | 304 | 4.0 | 11.0 | 0.00 | 0.07 | 0.01 | 43 | 1017.2 |
| 20260503181516 | 64 | 95 | 1.0 | 11.0 | 0.00 | 0.07 | 0.01 | 38 | 1017.4 |
| 20260503180055 | 64 | 355 | 4.0 | 10.0 | 0.00 | 0.07 | 0.01 | 40 | 1017.5 |
| 20260503174600 | 63 | 294 | 5.0 | 11.0 | 0.00 | 0.10 | 0.01 | 40 | 1017.8 |
| 20260503173020 | 62 | 34 | 5.0 | 9.0 | 0.00 | 0.10 | 0.01 | 43 | 1017.9 |
| 20260503171545 | 62 | 345 | 6.0 | 13.0 | 0.00 | 0.10 | 0.01 | 45 | 1017.9 |
| 20260503081543 | 40 | 340 | 0.0 | 0.0 | 0.00 | 0.45 | 0.01 | 98 | 1015.2 |
| 20260503071517 | 42 | 340 | 0.0 | 0.0 | 0.00 | 0.45 | 0.01 | 98 | 1014.5 |